Weather History for KLFT - August, 2011

Change the Weather History Date:

Tuesday, August 23, 2011

  Actual Average Record
Temperature  
Mean Temperature 88 °F 84 °F  
Max Temperature 97 °F 93 °F 101 °F (1921)
Min Temperature 78 °F 75 °F 59 °F (1956)
Cooling Degree Days 23 18  
Month to date cooling degree days 514 436  
Year to date cooling degree days 2551 2120  
Since 1 June cooling degree days 1703 1506  
Growing Degree Days 37 (Base 50)    
Moisture  
Dew Point 75 °F    
Average Humidity 70    
Maximum Humidity 91    
Minimum Humidity 48    
Precipitation  
Precipitation 0.06 in 0.15 in 1.68 in (1990)
Month to date precipitation 1.79 3.45  
Year to date precipitation 23.35 39.45  
Sea Level Pressure  
Sea Level Pressure 29.93 in    
Wind  
Wind Speed 2 mph (SSW)    
Max Wind Speed 15 mph    
Max Gust Speed 23 mph    
Visibility 10 miles    
Events Rain , Thunderstorm    
T = Trace of Precipitation, MM = Missing Value Source: NWS Daily Summary

Daily Weather History Graph

Daily Weather History Graph

Search for Another Location

Airport or City:

Trip Planner

Search our weather history database for the weather conditions in past years. The results will help you decide how hot, cold, wet, or windy it might be!

Date:

Astronomy

Aug. 23, 2011 Rise Set
Actual Time 6:39 AM CDT 7:41 PM CDT
Civil Twilight 6:14 AM CDT 8:05 PM CDT
Nautical Twilight 5:45 AM CDT 8:35 PM CDT
Astronomical Twilight 5:15 AM CDT 9:05 PM CDT
Moon 1:00 AM CDT (8/23) 3:25 PM CDT (8/23)
Length of Visible Light 13h 51m
Length of Day
13h 01m
Waning Crescent, 33% of the Moon is Illuminated
Aug 23
Waning Crescent
Aug 28
New
Sep 4
First Quarter
Sep 12
Full
Sep 20
Last Quarter

Hourly Weather History & Observations

Time (CDT) Temp. Heat Index Dew Point Humidity Pressure Visibility Wind Dir Wind Speed Gust Speed Precip Events Conditions
12:53 AM 80.1 °F 85.1 °F 75.0 °F 85% 29.95 in 10.0 mi Calm Calm - N/A   Clear
1:53 AM 80.1 °F 85.4 °F 75.9 °F 87% 29.93 in 10.0 mi Calm Calm - N/A   Clear
2:53 AM 81.0 °F 87.9 °F 77.0 °F 88% 29.93 in 10.0 mi Calm Calm - N/A   Clear
3:53 AM 79.0 °F - 75.9 °F 90% 29.93 in 10.0 mi Calm Calm - N/A   Clear
4:53 AM 79.0 °F - 75.9 °F 90% 29.93 in 10.0 mi Calm Calm - N/A   Clear
5:53 AM 78.1 °F - 75.0 °F 90% 29.94 in 10.0 mi Calm Calm - N/A   Clear
6:53 AM 78.1 °F - 75.0 °F 90% 29.95 in 10.0 mi Calm Calm - N/A   Clear
7:53 AM 80.1 °F 85.4 °F 75.9 °F 87% 29.96 in 10.0 mi Calm Calm - N/A   Clear
8:53 AM 84.9 °F 95.3 °F 77.0 °F 77% 29.96 in 10.0 mi Calm Calm - N/A   Clear
9:53 AM 89.1 °F 101.4 °F 77.0 °F 67% 29.97 in 10.0 mi NW 5.8 mph - N/A   Clear
10:53 AM 90.0 °F 101.3 °F 75.9 °F 63% 29.97 in 10.0 mi Variable 3.5 mph - N/A   Partly Cloudy
11:53 AM 91.9 °F 101.3 °F 73.9 °F 55% 29.96 in 10.0 mi Variable 3.5 mph - N/A   Mostly Cloudy
12:53 PM 95.0 °F 105.2 °F 73.9 °F 50% 29.94 in 10.0 mi Calm Calm - N/A   Partly Cloudy
1:53 PM 95.0 °F 107.4 °F 75.2 °F 53% 29.92 in 10.0 mi Variable 3.5 mph - N/A   Clear
2:53 PM 96.1 °F 105.6 °F 73.0 °F 47% 29.90 in 10.0 mi Calm Calm - N/A   Clear
3:53 PM 95.0 °F 106.7 °F 75.0 °F 52% 29.88 in 10.0 mi South 3.5 mph - N/A   Clear
4:53 PM 89.1 °F 97.0 °F 73.0 °F 59% 29.88 in 10.0 mi SSE 5.8 mph 23.0 mph N/A   Mostly Cloudy
5:53 PM 90.0 °F 95.4 °F 70.0 °F 52% 29.87 in 10.0 mi SSW 10.4 mph - N/A   Clear
6:53 PM 89.1 °F 96.0 °F 72.0 °F 57% 29.89 in 10.0 mi SSW 5.8 mph - N/A   Clear
7:53 PM 87.8 °F 95.6 °F 73.4 °F 62% 29.91 in 10.0 mi Calm Calm - N/A Thunderstorm Clear
8:53 PM 81.0 °F 87.9 °F 77.0 °F 88% 29.94 in 10.0 mi Calm Calm - 0.04 in Rain , Thunderstorm Rain
9:53 PM 80.1 °F 85.1 °F 75.0 °F 85% 29.93 in 10.0 mi Calm Calm - 0.02 in Thunderstorm Clear
10:53 PM 80.1 °F 85.4 °F 75.9 °F 87% 29.94 in 10.0 mi Calm Calm - N/A Thunderstorm Clear
11:53 PM 80.1 °F 85.8 °F 77.0 °F 90% 29.93 in 10.0 mi Calm Calm - N/A Thunderstorm Clear